| time (UTC) | temp F | wind direction | speed knots | gust knots | rain 1hr in | rain 24hr in | rain mn in | humidity % | barometer mb |
| 20260901161803 | 66 | 192 | 6.1 | 11.3 | 0.00 | 0.05 | 0.01 | 70 | |
| 20260901160903 | 66 | 188 | 5.2 | 10.4 | 0.00 | 0.05 | 0.01 | 71 | |
| 20260901160213 | 66 | 184 | 3.5 | 7.8 | 0.00 | 0.05 | 0.01 | 72 | |
| 20260901155612 | 65 | 184 | 4.3 | 8.7 | 0.00 | 0.05 | 0.01 | 72 | |
| 20260901154503 | 65 | 178 | 5.2 | 10.4 | 0.00 | 0.05 | 0.01 | 72 | |
| 20260901153603 | 65 | 197 | 4.3 | 8.7 | 0.00 | 0.05 | 0.01 | 71 | |
| 20260901152703 | 66 | 182 | 4.3 | 8.7 | 0.00 | 0.05 | 0.01 | 69 | |
| 20260901151803 | 66 | 162 | 3.5 | 9.6 | 0.00 | 0.05 | 0.01 | 70 | |
| 20260901150903 | 66 | 191 | 3.5 | 10.4 | 0.00 | 0.05 | 0.01 | 71 | |
| 20260901150003 | 65 | 169 | 3.5 | 7.0 | 0.00 | 0.05 | 0.01 | 71 | |
| 20260901145612 | 65 | 164 | 2.6 | 7.0 | 0.00 | 0.05 | 0.01 | 72 | |
| 20260901144503 | 64 | 146 | 4.3 | 9.6 | 0.00 | 0.05 | 0.01 | 73 | |
| 20260901143603 | 63 | 157 | 3.5 | 8.7 | 0.00 | 0.05 | 0.01 | 74 | |
| 20260901142703 | 62 | 171 | 3.5 | 4.3 | 0.00 | 0.05 | 0.01 | 76 | |
| 20260901134503 | 60 | 136 | 0.9 | 4.3 | 0.00 | 0.05 | 0.01 | 78 | |
| 20260901133603 | 60 | 134 | 1.7 | 3.5 | 0.00 | 0.05 | 0.01 | 78 | |
| 20260901132703 | 60 | 138 | 1.7 | 3.5 | 0.00 | 0.05 | 0.01 | 77 | |
| 20260901131803 | 60 | 128 | 1.7 | 4.3 | 0.00 | 0.05 | 0.01 | 77 | |
| 20260901130903 | 60 | 128 | 1.7 | 4.3 | 0.00 | 0.05 | 0.01 | 77 | |
| 20260901130003 | 60 | 141 | 2.6 | 5.2 | 0.00 | 0.05 | 0.01 | 78 | |
| 20260901125612 | 60 | 144 | 2.6 | 6.1 | 0.00 | 0.05 | 0.01 | 78 | |
| 20260901124503 | 59 | 142 | 2.6 | 6.1 | 0.00 | 0.05 | 0.01 | 80 | |
| 20260901123603 | 59 | 141 | 2.6 | 7.8 | 0.00 | 0.05 | 0.01 | 83 | |
| 20260901122703 | 57 | 132 | 1.7 | 4.3 | 0.00 | 0.05 | 0.01 | 85 | |
| 20260901121803 | 56 | 155 | 0.0 | 3.5 | 0.00 | 0.05 | 0.01 | 86 | |
| 20260901121113 | 55 | 0 | 0.0 | 0.0 | 0.00 | 0.05 | 0.01 | 86 | |
| 20260901120003 | 55 | 0 | 0.0 | 0.0 | 0.00 | 0.05 | 0.01 | 86 | |
| 20260901115403 | 55 | 0 | 0.0 | 0.0 | 0.00 | 0.05 | 0.01 | 86 | |
| 20260901114713 | 55 | 0 | 0.0 | 0.0 | 0.00 | 0.05 | 0.01 | 87 | |
| 20260901113813 | 54 | 0 | 0.0 | 0.0 | 0.00 | 0.05 | 0.01 | 87 | |
| 20260901112912 | 52 | 0 | 0.0 | 0.0 | 0.00 | 0.05 | 0.01 | 87 | |
| 20260901111803 | 51 | 0 | 0.0 | 0.0 | 0.00 | 0.05 | 0.01 | 85 | |
| 20260901110903 | 51 | 0 | 0.0 | 0.0 | 0.00 | 0.05 | 0.01 | 85 | |
| 20260901110003 | 51 | 0 | 0.0 | 0.0 | 0.00 | 0.05 | 0.01 | 84 | |
| 20260901105403 | 52 | 0 | 0.0 | 0.0 | 0.00 | 0.05 | 0.01 | 84 | |
| 20260901104713 | 52 | 0 | 0.0 | 0.0 | 0.00 | 0.05 | 0.01 | 83 | |
| 20260901103603 | 53 | 287 | 0.0 | 2.6 | 0.00 | 0.05 | 0.01 | 82 | |
| 20260901102703 | 54 | 287 | 1.7 | 4.3 | 0.00 | 0.05 | 0.01 | 81 | |
| 20260901101803 | 55 | 276 | 1.7 | 5.2 | 0.00 | 0.05 | 0.01 | 81 | |
| 20260901100903 | 56 | 140 | 0.0 | 0.9 | 0.00 | 0.05 | 0.01 | 81 | |
| 20260901100003 | 56 | 140 | 0.0 | 2.6 | 0.00 | 0.05 | 0.01 | 81 | |
| 20260901095403 | 57 | 140 | 0.0 | 2.6 | 0.00 | 0.05 | 0.01 | 81 | |
| 20260901094503 | 57 | 155 | 1.7 | 7.0 | 0.00 | 0.05 | 0.01 | 82 | |
| 20260901093603 | 57 | 179 | 3.5 | 7.0 | 0.00 | 0.05 | 0.01 | 83 | |
| 20260901092703 | 57 | 197 | 3.5 | 6.1 | 0.00 | 0.05 | 0.01 | 86 | |
| 20260901091803 | 56 | 209 | 3.5 | 8.7 | 0.00 | 0.05 | 0.01 | 87 | |
| 20260901090903 | 54 | 205 | 2.6 | 5.2 | 0.00 | 0.05 | 0.01 | 88 | |
| 20260901090003 | 54 | 203 | 0.0 | 3.5 | 0.00 | 0.05 | 0.01 | 88 | |
| 20260901085613 | 54 | 206 | 0.0 | 3.5 | 0.00 | 0.05 | 0.01 | 88 | |
| 20260901084503 | 53 | 225 | 1.7 | 5.2 | 0.00 | 0.05 | 0.01 | 88 | |
| 20260901083603 | 53 | 249 | 0.9 | 2.6 | 0.00 | 0.05 | 0.01 | 88 | |
| 20260901082913 | 53 | 249 | 0.9 | 2.6 | 0.00 | 0.05 | 0.01 | 88 | |
| 20260901081803 | 53 | 239 | 3.5 | 6.1 | 0.00 | 0.05 | 0.01 | 88 | |
| 20260901080903 | 53 | 201 | 1.7 | 4.3 | 0.00 | 0.05 | 0.01 | 88 | |
| 20260901080213 | 54 | 189 | 0.9 | 4.3 | 0.00 | 0.05 | 0.01 | 88 | |
| 20260901075403 | 53 | 188 | 0.9 | 2.6 | 0.00 | 0.05 | 0.01 | 88 | |
| 20260901074503 | 53 | 188 | 0.0 | 2.6 | 0.00 | 0.05 | 0.01 | 87 | |
| 20260901073603 | 53 | 188 | 0.0 | 0.9 | 0.01 | 0.05 | 0.01 | 87 | |
| 20260901072703 | 53 | 0 | 0.0 | 0.0 | 0.01 | 0.05 | 0.01 | 87 | |
| 20260901071803 | 53 | 188 | 0.0 | 0.9 | 0.01 | 0.05 | 0.01 | 87 | |
| 20260901070903 | 53 | 188 | 0.0 | 1.7 | 0.01 | 0.05 | 0.01 | 87 | |
| 20260901070003 | 53 | 0 | 0.0 | 0.0 | 0.01 | 0.05 | 0.01 | 86 | |
| 20260901065403 | 53 | 0 | 0.0 | 0.0 | 0.01 | 0.05 | 0.01 | 86 | |
| 20260901064503 | 53 | 0 | 0.0 | 0.0 | 0.01 | 0.05 | 0.01 | 86 | |
| 20260901063603 | 53 | 0 | 0.0 | 0.0 | 0.00 | 0.04 | 0.00 | 86 | |
| 20260901062703 | 53 | 189 | 0.0 | 1.7 | 0.00 | 0.04 | 0.00 | 85 | |
| 20260901061803 | 54 | 188 | 0.9 | 1.7 | 0.00 | 0.04 | 0.00 | 85 | |
| 20260901060903 | 54 | 188 | 0.0 | 2.6 | 0.00 | 0.04 | 0.00 | 85 | |
| 20260901060008 | 54 | 188 | 0.0 | 1.7 | 0.00 | 0.04 | 0.00 | 84 | |
| 20260901055403 | 54 | 188 | 0.0 | 1.7 | 0.00 | 0.04 | 0.04 | 84 | |
| 20260901054713 | 54 | 0 | 0.0 | 0.0 | 0.00 | 0.04 | 0.04 | 84 | |
| 20260901053813 | 55 | 188 | 0.0 | 1.7 | 0.00 | 0.04 | 0.04 | 84 | |
| 20260901052703 | 55 | 188 | 0.9 | 3.5 | 0.00 | 0.04 | 0.04 | 83 | |
| 20260901051803 | 55 | 188 | 1.7 | 5.2 | 0.00 | 0.04 | 0.04 | 82 | |
| 20260901050903 | 56 | 181 | 1.7 | 6.1 | 0.00 | 0.04 | 0.04 | 81 | |
| 20260901050003 | 56 | 176 | 1.7 | 3.5 | 0.00 | 0.04 | 0.04 | 80 | |
| 20260901045403 | 57 | 177 | 1.7 | 7.8 | 0.00 | 0.04 | 0.04 | 79 | |
| 20260901044505 | 57 | 150 | 2.6 | 7.8 | 0.00 | 0.04 | 0.04 | 78 | |
| 20260901043603 | 57 | 91 | 1.7 | 6.1 | 0.00 | 0.04 | 0.04 | 76 | |
| 20260901042703 | 57 | 34 | 1.7 | 11.3 | 0.00 | 0.04 | 0.04 | 76 | |
| 20260901041803 | 57 | 4 | 2.6 | 11.3 | 0.00 | 0.04 | 0.04 | 77 | |
| 20260901040903 | 56 | 21 | 3.5 | 11.3 | 0.00 | 0.04 | 0.04 | 80 | |
| 20260901040003 | 56 | 15 | 5.2 | 13.0 | 0.00 | 0.04 | 0.04 | 81 | |
| 20260901035613 | 56 | 5 | 6.1 | 13.0 | 0.00 | 0.04 | 0.04 | 81 | |
| 20260901034503 | 56 | 350 | 5.2 | 10.4 | 0.00 | 0.04 | 0.04 | 81 | |
| 20260901033603 | 56 | 359 | 2.6 | 7.8 | 0.00 | 0.04 | 0.04 | 81 | |
| 20260901032703 | 56 | 8 | 4.3 | 13.0 | 0.00 | 0.04 | 0.04 | 80 | |
| 20260901031803 | 56 | 9 | 5.2 | 12.2 | 0.01 | 0.04 | 0.04 | 80 | |
| 20260901030903 | 56 | 360 | 4.3 | 9.6 | 0.01 | 0.04 | 0.04 | 79 | |
| 20260901030213 | 56 | 356 | 5.2 | 10.4 | 0.01 | 0.04 | 0.04 | 79 | |
| 20260901025403 | 56 | 343 | 7.0 | 13.9 | 0.02 | 0.04 | 0.04 | 79 | |
| 20260901024503 | 56 | 349 | 7.0 | 13.0 | 0.03 | 0.04 | 0.04 | 80 | |
| 20260901023603 | 56 | 341 | 4.3 | 8.7 | 0.04 | 0.04 | 0.04 | 81 | |
| 20260901022703 | 56 | 352 | 5.2 | 12.2 | 0.04 | 0.04 | 0.04 | 80 | |
| 20260901021803 | 56 | 2 | 5.2 | 11.3 | 0.03 | 0.03 | 0.03 | 79 | |
| 20260901020903 | 57 | 22 | 5.2 | 15.6 | 0.03 | 0.03 | 0.03 | 77 | |
| 20260901020003 | 58 | 18 | 6.1 | 13.0 | 0.03 | 0.03 | 0.03 | 75 | |
| 20260901015614 | 58 | 19 | 6.1 | 13.0 | 0.03 | 0.03 | 0.03 | 74 | |
| 20260901014503 | 60 | 6 | 7.0 | 18.2 | 0.01 | 0.01 | 0.01 | 70 | |
| 20260901013603 | 60 | 359 | 6.1 | 16.5 | 0.00 | 0.00 | 0.00 | 67 | |
| 20260901012914 | 60 | 26 | 4.3 | 12.2 | 0.00 | 0.00 | 0.00 | 65 | |
| 20260901011803 | 61 | 348 | 6.1 | 13.9 | 0.00 | 0.00 | 0.00 | 60 | |
| 20260901010903 | 63 | 343 | 7.8 | 15.6 | 0.00 | 0.00 | 0.00 | 57 | |
| 20260901010003 | 64 | 348 | 6.1 | 11.3 | 0.00 | 0.00 | 0.00 | 59 | |
| 20260901005614 | 64 | 342 | 5.2 | 12.2 | 0.00 | 0.00 | 0.00 | 59 | |
| 20260901004503 | 66 | 342 | 9.6 | 17.4 | 0.00 | 0.00 | 0.00 | 57 | |
| 20260901003603 | 70 | 307 | 11.3 | 21.7 | 0.00 | 0.00 | 0.00 | 51 | |
| 20260901002703 | 75 | 197 | 5.2 | 12.2 | 0.00 | 0.00 | 0.00 | 46 | |
| 20260901001803 | 75 | 173 | 6.1 | 26.1 | 0.00 | 0.00 | 0.00 | 44 | |
| 20260901000903 | 76 | 171 | 4.3 | 10.4 | 0.00 | 0.00 | 0.00 | 45 | |
| 20260901000003 | 76 | 132 | 5.2 | 11.3 | 0.00 | 0.00 | 0.00 | 45 | |
| 20260831235403 | 76 | 122 | 6.1 | 15.6 | 0.00 | 0.00 | 0.00 | 46 | |
| 20260831234503 | 75 | 126 | 7.8 | 15.6 | 0.00 | 0.00 | 0.00 | 46 | |
| 20260831233603 | 74 | 123 | 7.0 | 13.0 | 0.00 | 0.00 | 0.00 | 47 | |
| 20260831232703 | 74 | 131 | 6.1 | 13.0 | 0.00 | 0.00 | 0.00 | 46 | |
| 20260831232013 | 75 | 120 | 7.8 | 16.5 | 0.00 | 0.00 | 0.00 | 45 | |
| 20260831230903 | 76 | 121 | 7.0 | 13.9 | 0.00 | 0.00 | 0.00 | 44 | |
| 20260831230003 | 76 | 120 | 7.0 | 16.5 | 0.00 | 0.00 | 0.00 | 42 | |
| 20260831225403 | 76 | 129 | 7.0 | 16.5 | 0.00 | 0.00 | 0.00 | 43 | |
| 20260831224503 | 76 | 116 | 7.8 | 22.6 | 0.00 | 0.00 | 0.00 | 44 | |
| 20260831223603 | 76 | 117 | 8.7 | 22.6 | 0.00 | 0.00 | 0.00 | 44 | |
| 20260831222703 | 76 | 109 | 6.1 | 18.2 | 0.00 | 0.00 | 0.00 | 46 | |
| 20260831221803 | 76 | 100 | 7.0 | 13.9 | 0.00 | 0.00 | 0.00 | 46 | |
| 20260831220903 | 76 | 120 | 6.1 | 14.8 | 0.00 | 0.00 | 0.00 | 46 | |
| 20260831220003 | 75 | 122 | 6.1 | 11.3 | 0.00 | 0.00 | 0.00 | 46 | |
| 20260831215403 | 74 | 135 | 6.1 | 13.0 | 0.00 | 0.00 | 0.00 | 48 | |
| 20260831214714 | 74 | 138 | 6.1 | 13.0 | 0.00 | 0.00 | 0.00 | 48 | |
| 20260831213603 | 73 | 190 | 6.1 | 18.2 | 0.00 | 0.00 | 0.00 | 51 | |
| 20260831212703 | 74 | 201 | 4.3 | 11.3 | 0.00 | 0.00 | 0.00 | 53 | |
| 20260831211803 | 70 | 109 | 7.8 | 17.4 | 0.00 | 0.00 | 0.00 | 49 | |
| 20260831210903 | 68 | 122 | 7.8 | 19.1 | 0.00 | 0.00 | 0.00 | 46 | |
| 20260831210003 | 70 | 136 | 7.8 | 15.6 | 0.00 | 0.00 | 0.00 | 43 | |
| 20260831205403 | 70 | 148 | 6.1 | 15.6 | 0.00 | 0.00 | 0.00 | 39 | |
| 20260831204503 | 71 | 146 | 6.1 | 13.0 | 0.00 | 0.00 | 0.00 | 43 | |
| 20260831203603 | 71 | 136 | 7.0 | 15.6 | 0.00 | 0.00 | 0.00 | 45 | |
| 20260831202912 | 72 | 135 | 7.0 | 11.3 | 0.00 | 0.00 | 0.00 | 46 |